TimePDT,TemperatureF,Dew PointF,Humidity,Sea Level PressureIn,VisibilityMPH,Wind Direction,Wind SpeedMPH,Gust SpeedMPH,PrecipitationIn,Events,Conditions,WindDirDegrees,DateUTC
12:56 AM,57.9,39.0,49,30.06,10.0,NNW,3.5,-,N/A,,Partly Cloudy,330,2013-04-28 07:56:00
1:56 AM,57.9,37.9,47,30.06,10.0,Calm,Calm,-,N/A,,Overcast,0,2013-04-28 08:56:00
2:56 AM,55.9,37.9,51,30.06,10.0,NW,5.8,-,N/A,,Mostly Cloudy,320,2013-04-28 09:56:00
3:56 AM,55.9,39.0,53,30.07,10.0,West,9.2,-,N/A,,Overcast,270,2013-04-28 10:56:00
4:56 AM,54.0,39.9,59,30.07,10.0,West,5.8,-,N/A,,Overcast,280,2013-04-28 11:56:00
5:56 AM,51.1,39.9,66,30.09,10.0,WSW,4.6,-,N/A,,Partly Cloudy,250,2013-04-28 12:56:00
6:56 AM,53.1,39.9,61,30.09,10.0,SSE,4.6,-,N/A,,Mostly Cloudy,160,2013-04-28 13:56:00
7:56 AM,54.0,39.9,59,30.11,10.0,Calm,Calm,-,N/A,,Overcast,0,2013-04-28 14:56:00
8:56 AM,54.0,41.0,62,30.11,10.0,Calm,Calm,-,N/A,,Overcast,0,2013-04-28 15:56:00
9:56 AM,57.0,41.0,55,30.11,10.0,Calm,Calm,-,N/A,,Overcast,0,2013-04-28 16:56:00
10:56 AM,57.9,41.0,53,30.11,10.0,Calm,Calm,-,0.00,Rain,Light Rain,0,2013-04-28 17:56:00
11:56 AM,61.0,41.0,48,30.09,10.0,SSE,3.5,-,0.00,,Mostly Cloudy,150,2013-04-28 18:56:00
12:56 PM,62.1,39.0,43,30.07,10.0,Variable,3.5,-,N/A,,Mostly Cloudy,0,2013-04-28 19:56:00
1:56 PM,66.0,37.0,34,30.04,10.0,Variable,4.6,-,N/A,,Mostly Cloudy,0,2013-04-28 20:56:00
2:56 PM,66.0,34.0,30,30.01,10.0,West,9.2,23.0,N/A,,Mostly Cloudy,280,2013-04-28 21:56:00
3:56 PM,66.0,34.0,30,29.99,10.0,WNW,9.2,16.1,N/A,,Overcast,300,2013-04-28 22:56:00
4:56 PM,66.9,35.1,31,29.96,10.0,West,17.3,23.0,N/A,,Mostly Cloudy,280,2013-04-28 23:56:00
5:03 PM,68.0,35.6,30,29.96,10.0,WNW,15.0,24.2,N/A,,Scattered Clouds,290,2013-04-29 00:03:00
5:56 PM,66.0,30.9,27,29.96,10.0,West,16.1,21.9,N/A,,Clear,270,2013-04-29 00:56:00
6:56 PM,63.0,28.0,27,29.96,10.0,West,17.3,24.2,N/A,,Clear,270,2013-04-29 01:56:00
7:56 PM,60.1,30.9,33,29.96,10.0,West,8.1,-,N/A,,Clear,270,2013-04-29 02:56:00
8:56 PM,59.0,33.1,38,29.96,10.0,West,6.9,-,N/A,,Partly Cloudy,270,2013-04-29 03:56:00
9:56 PM,57.9,34.0,41,29.95,10.0,SW,3.5,-,N/A,,Clear,220,2013-04-29 04:56:00
10:56 PM,57.0,35.1,44,29.93,10.0,South,4.6,-,N/A,,Overcast,180,2013-04-29 05:56:00
11:56 PM,57.0,35.1,44,29.91,10.0,South,3.5,-,N/A,,Overcast,190,2013-04-29 06:56:00